Weather History for Howell, MI

Change the Weather History Date:

Friday, August 29, 2014

  Actual Average Record
Temperature  
Mean Temperature 65 °F -  
Max Temperature 74 °F 78 °F 91 °F (2007)
Min Temperature 56 °F 56 °F 50 °F (2011)
Growing Degree Days 15 (Base 50)    
Moisture  
Dew Point 57 °F    
Average Humidity 77    
Maximum Humidity 94    
Minimum Humidity 57    
Precipitation  
Precipitation 0.00 in - - ()
Sea Level Pressure  
Sea Level Pressure 30.09 in    
Wind  
Wind Speed 7 mph (SE)    
Max Wind Speed 14 mph    
Max Gust Speed 17 mph    
Visibility 10 miles    
Events      
Averages and records for this station are not official NWS values.
T = Trace of Precipitation, MM = Missing Value Source: NWS Daily Summary

Daily Weather History Graph

Daily Weather History Graph

Search for Another Location

Airport:

Trip Planner

Search our weather history database for the weather conditions in past years. The results will help you decide how hot, cold, wet, or windy it might be!

Date:

Astronomy

Aug. 29, 2014 Rise Set
Actual Time 6:57 AM EDT 8:15 PM EDT
Civil Twilight 6:28 AM EDT 8:44 PM EDT
Nautical Twilight 5:53 AM EDT 9:19 PM EDT
Astronomical Twilight 5:16 AM EDT 9:56 PM EDT
Moon 10:52 AM EDT (8/29) 10:05 PM EDT (8/29)
Length of Visible Light 14h 16m
Length of Day
13h 17m
Waxing Crescent, 15% of the Moon is Illuminated
Aug 29
Waxing Crescent
Sep 2
First Quarter
Sep 8
Full
Sep 15
Last Quarter
Sep 24
New

Hourly Weather History & Observations

Time (EDT) Temp. Dew Point Humidity Pressure Visibility Wind Dir Wind Speed Gust Speed Precip Events Conditions
12:14 AM 57.6 °F 55.0 °F 91% 30.15 in 10.0 mi Calm Calm - N/A   Clear
12:35 AM 58.1 °F 55.6 °F 91% 30.15 in 10.0 mi ESE 3.5 mph - N/A   Clear
12:55 AM 57.4 °F 55.6 °F 94% 30.14 in 10.0 mi ESE 5.8 mph - N/A   Clear
1:14 AM 58.1 °F 56.3 °F 94% 30.14 in 10.0 mi ESE 4.6 mph - N/A   Clear
1:35 AM 58.3 °F 55.6 °F 91% 30.14 in 10.0 mi ESE 5.8 mph - N/A   Clear
1:55 AM 58.1 °F 54.9 °F 89% 30.14 in 10.0 mi ESE 5.8 mph - N/A   Clear
2:14 AM 57.6 °F 54.7 °F 90% 30.13 in 10.0 mi SE 5.8 mph - N/A   Clear
2:35 AM 57.2 °F 54.5 °F 91% 30.12 in 10.0 mi ESE 4.6 mph - N/A   Clear
2:55 AM 57.7 °F 54.7 °F 90% 30.12 in 10.0 mi ESE 3.5 mph - N/A   Clear
3:15 AM 57.6 °F 54.5 °F 90% 30.12 in 10.0 mi SSE 4.6 mph - N/A   Clear
3:35 AM 57.2 °F 54.5 °F 91% 30.11 in 10.0 mi SE 5.8 mph - N/A   Clear
3:55 AM 56.8 °F 54.5 °F 92% 30.11 in 10.0 mi ESE 3.5 mph - N/A   Clear
4:15 AM 56.7 °F 54.5 °F 92% 30.10 in 10.0 mi SE 4.6 mph - N/A   Clear
4:35 AM 57.2 °F 54.5 °F 91% 30.10 in 10.0 mi SE 5.8 mph - N/A   Clear
4:55 AM 56.8 °F 54.5 °F 92% 30.10 in 10.0 mi SE 5.8 mph - N/A   Clear
5:15 AM 56.8 °F 54.5 °F 92% 30.10 in 10.0 mi ESE 6.9 mph - N/A   Clear
5:35 AM 57.4 °F 54.5 °F 90% 30.10 in 10.0 mi ESE 5.8 mph - N/A   Clear
5:55 AM 57.4 °F 54.5 °F 90% 30.11 in 10.0 mi SE 5.8 mph - N/A   Clear
6:15 AM 57.7 °F 54.9 °F 90% 30.12 in 10.0 mi SE 4.6 mph - N/A   Clear
6:35 AM 57.6 °F 54.9 °F 91% 30.11 in 10.0 mi SE 5.8 mph - N/A   Clear
6:54 AM 57.4 °F 55.0 °F 92% 30.11 in 10.0 mi SE 5.8 mph - N/A   Clear
7:15 AM 57.7 °F 55.4 °F 92% 30.12 in 10.0 mi SE 5.8 mph - N/A   Clear
7:35 AM 58.5 °F 55.8 °F 91% 30.13 in 10.0 mi SE 6.9 mph - N/A   Clear
7:54 AM 59.4 °F 55.9 °F 88% 30.13 in 10.0 mi SSE 8.1 mph - N/A   Scattered Clouds
8:15 AM 59.9 °F 55.9 °F 87% 30.13 in 10.0 mi SSE 9.2 mph - N/A   Mostly Cloudy
8:35 AM 60.3 °F 56.1 °F 86% 30.14 in 10.0 mi SSE 6.9 mph - N/A   Scattered Clouds
8:54 AM 61.2 °F 56.5 °F 85% 30.13 in 10.0 mi SSE 8.1 mph - N/A   Clear
9:15 AM 62.8 °F 56.8 °F 81% 30.13 in 10.0 mi SSE 9.2 mph - N/A   Clear
9:35 AM 64.2 °F 56.3 °F 75% 30.13 in 10.0 mi SSE 13.8 mph - N/A   Clear
9:54 AM 64.0 °F 56.8 °F 77% 30.12 in 10.0 mi SSE 11.5 mph - N/A   Clear
10:15 AM 64.9 °F 57.0 °F 75% 30.13 in 10.0 mi SSE 10.4 mph - N/A   Clear
10:35 AM 65.5 °F 56.7 °F 73% 30.12 in 10.0 mi SSE 9.2 mph - N/A   Clear
10:54 AM 65.5 °F 56.3 °F 72% 30.12 in 10.0 mi SSE 12.7 mph - N/A   Scattered Clouds
11:15 AM 65.5 °F 54.7 °F 68% 30.12 in 10.0 mi SSE 11.5 mph 17.3 mph N/A   Scattered Clouds
11:35 AM 66.2 °F 55.6 °F 69% 30.11 in 10.0 mi SE 8.1 mph - N/A   Scattered Clouds
11:54 AM 67.1 °F 55.8 °F 67% 30.11 in 10.0 mi SSE 9.2 mph - N/A   Scattered Clouds
12:15 PM 68.0 °F 54.0 °F 61% 30.12 in 10.0 mi SE 10.4 mph - N/A   Mostly Cloudy
12:35 PM 68.2 °F 54.1 °F 61% 30.12 in 10.0 mi SSE 10.4 mph - N/A   Overcast
12:54 PM 69.1 °F 55.0 °F 61% 30.11 in 10.0 mi SE 9.2 mph - N/A   Mostly Cloudy
1:15 PM 69.8 °F 55.6 °F 61% 30.10 in 10.0 mi SSE 9.2 mph - N/A   Scattered Clouds
1:35 PM 70.2 °F 55.9 °F 61% 30.10 in 10.0 mi SSE 10.4 mph - N/A   Overcast
1:54 PM 70.5 °F 55.0 °F 58% 30.10 in 10.0 mi SSE 13.8 mph - N/A   Scattered Clouds
2:15 PM 71.6 °F 55.4 °F 57% 30.10 in 10.0 mi SSE 11.5 mph 17.3 mph N/A   Scattered Clouds
2:35 PM 71.6 °F 57.0 °F 60% 30.09 in 10.0 mi SSE 8.1 mph - N/A   Scattered Clouds
2:55 PM 70.9 °F 57.6 °F 63% 30.08 in 10.0 mi SE 9.2 mph - N/A   Scattered Clouds
3:15 PM 72.5 °F 58.6 °F 62% 30.07 in 10.0 mi SE 10.4 mph - N/A   Clear
3:34 PM 73.4 °F 59.0 °F 61% 30.07 in 10.0 mi SE 9.2 mph - N/A   Clear
3:55 PM 73.0 °F 58.6 °F 61% 30.06 in 10.0 mi SE 10.4 mph - N/A   Scattered Clouds
4:15 PM 72.5 °F 59.5 °F 64% 30.06 in 10.0 mi SSE 6.9 mph - N/A   Scattered Clouds
4:35 PM 73.4 °F 60.1 °F 63% 30.05 in 10.0 mi SE 8.1 mph - N/A   Scattered Clouds
4:55 PM 74.8 °F 59.9 °F 60% 30.04 in 10.0 mi SSE 9.2 mph - N/A   Mostly Cloudy
5:15 PM 74.3 °F 59.9 °F 61% 30.04 in 10.0 mi SSE 12.7 mph - N/A   Scattered Clouds
5:34 PM 74.3 °F 61.0 °F 63% 30.04 in 10.0 mi SSE 10.4 mph - N/A   Scattered Clouds
5:55 PM 73.8 °F 61.5 °F 65% 30.04 in 10.0 mi SSE 9.2 mph - N/A   Mostly Cloudy
6:15 PM 73.6 °F 61.7 °F 66% 30.03 in 10.0 mi SE 9.2 mph - N/A   Mostly Cloudy
6:34 PM 73.0 °F 61.5 °F 67% 30.03 in 10.0 mi SE 9.2 mph - N/A   Scattered Clouds
6:55 PM 72.7 °F 61.7 °F 68% 30.02 in 10.0 mi SE 10.4 mph - N/A   Clear
7:14 PM 72.5 °F 61.7 °F 69% 30.01 in 10.0 mi SE 10.4 mph - N/A   Clear
7:35 PM 71.6 °F 61.7 °F 71% 30.01 in 10.0 mi SE 9.2 mph - N/A   Clear
7:55 PM 71.1 °F 61.5 °F 72% 30.00 in 10.0 mi SE 9.2 mph - N/A   Clear
8:14 PM 70.2 °F 61.9 °F 75% 30.00 in 10.0 mi SE 10.4 mph - N/A   Clear
8:35 PM 69.8 °F 62.1 °F 76% 30.01 in 10.0 mi SE 8.1 mph - N/A   Clear
8:55 PM 69.8 °F 61.7 °F 75% 30.01 in 10.0 mi SE 11.5 mph - N/A   Clear
9:14 PM 69.6 °F 61.0 °F 74% 30.02 in 10.0 mi SE 8.1 mph - N/A   Clear
9:35 PM 69.3 °F 60.8 °F 74% 30.03 in 10.0 mi SE 8.1 mph - N/A   Clear
9:55 PM 68.9 °F 60.4 °F 74% 30.03 in 10.0 mi SE 9.2 mph - N/A   Clear
10:14 PM 68.4 °F 60.3 °F 75% 30.02 in 10.0 mi SE 9.2 mph - N/A   Clear
10:35 PM 68.2 °F 60.3 °F 76% 30.03 in 10.0 mi SE 8.1 mph - N/A   Scattered Clouds
10:55 PM 68.0 °F 59.9 °F 75% 30.02 in 10.0 mi SE 10.4 mph - N/A   Scattered Clouds
11:14 PM 68.4 °F 59.9 °F 74% 30.03 in 10.0 mi SE 8.1 mph - N/A   Clear
11:35 PM 68.0 °F 60.3 °F 76% 30.03 in 10.0 mi SE 8.1 mph - N/A   Clear
11:55 PM 67.3 °F 60.8 °F 80% 30.02 in 10.0 mi SE 8.1 mph - N/A   Clear